Bullhead City, AZ

9:16 PM MST on April 24, 2018 (GMT -0700)
Laughlin-Bullhead International

Weather History for KIFP - February, 2014

Change the Weather History Date:

Thursday, February 20, 2014

  Actual Average Record
Temperature  
Mean Temperature 62 °F -  
Max Temperature 68 °F 65 °F 80 °F (2015)
Min Temperature 55 °F 48 °F 33 °F (1988)
Degree Days  
Heating Degree Days 4    
Growing Degree Days 12 (Base 50)    
Moisture  
Dew Point 10 °F    
Average Humidity 13    
Maximum Humidity 21    
Minimum Humidity 8    
Precipitation  
Precipitation 0.00 in - - ()
Sea Level Pressure  
Sea Level Pressure 30.09 in    
Wind  
Wind Speed 22 mph (North)    
Max Wind Speed 34 mph    
Max Gust Speed 45 mph    
Visibility 10 miles    
Events      
Averages and records for this station are not official NWS values.
T = Trace of Precipitation, MM = Missing Value Source: NWS Daily Summary

Daily Weather History Graph

Daily Weather History Graph

Search for Another Location

Airport or City:

Astronomy

Feb. 20, 2014 Rise Set
Actual Time 7:18 AM MST 6:25 PM MST
Civil Twilight 6:52 AM MST 6:51 PM MST
Nautical Twilight 6:23 AM MST 7:20 PM MST
Astronomical Twilight 5:54 AM MST 7:50 PM MST
Moon No Moon Rise 10:17 AM MST (2/20)
Length of Visible Light 11h 58m
Length of Day
11h 06m
Waning Gibbous, 70% of the Moon is Illuminated
Feb 20
Waning Gibbous
Feb 22
Last Quarter
Mar 1
New
Mar 8
First Quarter
Mar 16
Full

Hourly Weather History & Observations

Time (MST) Temp. Dew Point Humidity Pressure Visibility Wind Dir Wind Speed Gust Speed Precip Events Conditions
12:15 AM 68.0 °F 14.0 °F 12% 29.95 in 10.0 mi North 21.9 mph 27.6 mph N/A   Clear
12:35 AM 68.0 °F 15.8 °F 13% 29.96 in 10.0 mi North 21.9 mph 26.5 mph N/A   Clear
12:55 AM 66.2 °F 15.8 °F 14% 29.97 in 10.0 mi North 20.7 mph 26.5 mph N/A   Clear
1:15 AM 66.2 °F 15.8 °F 14% 29.98 in 10.0 mi North 18.4 mph 24.2 mph N/A   Clear
1:35 AM 66.2 °F 15.8 °F 14% 29.98 in 10.0 mi North 21.9 mph 27.6 mph N/A   Clear
1:55 AM 66.2 °F 15.8 °F 14% 29.99 in 10.0 mi NNE 20.7 mph 27.6 mph N/A   Clear
2:15 AM 64.4 °F 15.8 °F 15% 29.99 in 10.0 mi North 25.3 mph 28.8 mph N/A   Clear
2:35 AM 64.4 °F 15.8 °F 15% 29.99 in 10.0 mi North 26.5 mph 36.8 mph N/A   Clear
2:55 AM 62.6 °F 15.8 °F 16% 30.00 in 10.0 mi North 23.0 mph 32.2 mph N/A   Clear
3:15 AM 62.6 °F 15.8 °F 16% 30.01 in 10.0 mi North 25.3 mph 31.1 mph N/A   Clear
3:35 AM 62.6 °F 15.8 °F 16% 30.03 in 10.0 mi North 16.1 mph 29.9 mph N/A   Clear
3:55 AM 62.6 °F 15.8 °F 16% 30.04 in 10.0 mi North 19.6 mph 31.1 mph N/A   Clear
4:15 AM 60.8 °F 15.8 °F 17% 30.04 in 10.0 mi North 28.8 mph 35.7 mph N/A   Clear
4:35 AM 59.0 °F 15.8 °F 19% 30.05 in 10.0 mi North 24.2 mph 35.7 mph N/A   Clear
4:55 AM 59.0 °F 15.8 °F 19% 30.05 in 10.0 mi North 29.9 mph 34.5 mph N/A   Clear
5:15 AM 59.0 °F 15.8 °F 19% 30.07 in 10.0 mi North 31.1 mph 38.0 mph N/A   Clear
5:35 AM 59.0 °F 14.0 °F 17% 30.07 in 10.0 mi North 27.6 mph 35.7 mph N/A   Clear
5:55 AM 57.2 °F 17.6 °F 21% 30.09 in 10.0 mi North 25.3 mph 32.2 mph N/A   Clear
6:15 AM 57.2 °F 15.8 °F 20% 30.09 in 10.0 mi North 26.5 mph 32.2 mph N/A   Clear
6:35 AM 57.2 °F 14.0 °F 18% 30.10 in 10.0 mi North 25.3 mph 35.7 mph N/A   Clear
6:55 AM 57.2 °F 14.0 °F 18% 30.11 in 10.0 mi North 27.6 mph 41.4 mph N/A   Clear
7:15 AM 57.2 °F 14.0 °F 18% 30.11 in 10.0 mi North 29.9 mph 38.0 mph N/A   Clear
7:35 AM 57.2 °F 10.4 °F 16% 30.12 in 10.0 mi North 26.5 mph 42.6 mph N/A   Clear
7:55 AM 57.2 °F 10.4 °F 16% 30.13 in 10.0 mi North 24.2 mph 39.1 mph N/A   Clear
8:15 AM 55.4 °F 8.6 °F 15% 30.15 in 10.0 mi North 26.5 mph 36.8 mph N/A   Clear
8:35 AM 57.2 °F 8.6 °F 14% 30.15 in 10.0 mi North 31.1 mph 43.7 mph N/A   Clear
8:55 AM 57.2 °F 8.6 °F 14% 30.16 in 10.0 mi North 33.4 mph 41.4 mph N/A   Clear
9:15 AM 57.2 °F 10.4 °F 16% 30.17 in 10.0 mi North 29.9 mph 41.4 mph N/A   Clear
9:35 AM 57.2 °F 10.4 °F 16% 30.18 in 10.0 mi North 33.4 mph 40.3 mph N/A   Clear
9:55 AM 59.0 °F 8.6 °F 14% 30.18 in 10.0 mi North 33.4 mph 43.7 mph N/A   Clear
10:15 AM 59.0 °F 10.4 °F 15% 30.19 in 10.0 mi North 29.9 mph 44.9 mph N/A   Clear
10:35 AM 59.0 °F 10.4 °F 15% 30.19 in 10.0 mi North 31.1 mph 42.6 mph N/A   Clear
10:55 AM 59.0 °F 10.4 °F 15% 30.20 in 10.0 mi North 28.8 mph 44.9 mph N/A   Clear
11:15 AM 60.8 °F 10.4 °F 14% 30.18 in 10.0 mi North 34.5 mph 41.4 mph N/A   Clear
11:35 AM 62.6 °F 8.6 °F 12% 30.19 in 10.0 mi North 32.2 mph 41.4 mph N/A   Clear
11:55 AM 62.6 °F 8.6 °F 12% 30.19 in 10.0 mi North 33.4 mph 40.3 mph N/A   Clear
12:15 PM 62.6 °F 8.6 °F 12% 30.19 in 10.0 mi North 25.3 mph 33.4 mph N/A   Clear
12:35 PM 62.6 °F 8.6 °F 12% 30.18 in 10.0 mi North 24.2 mph 29.9 mph N/A   Clear
12:55 PM 64.4 °F 8.6 °F 11% 30.17 in 10.0 mi North 23.0 mph 32.2 mph N/A   Clear
1:15 PM 64.4 °F 6.8 °F 10% 30.16 in 10.0 mi North 26.5 mph 33.4 mph N/A   Clear
1:35 PM 66.2 °F 8.6 °F 11% 30.15 in 10.0 mi NNW 23.0 mph 26.5 mph N/A   Clear
1:55 PM 66.2 °F 6.8 °F 10% 30.13 in 10.0 mi NNW 26.5 mph 31.1 mph N/A   Clear
2:15 PM 66.2 °F 6.8 °F 10% 30.12 in 10.0 mi NNW 21.9 mph 31.1 mph N/A   Clear
2:35 PM 66.2 °F 6.8 °F 10% 30.11 in 10.0 mi NNW 23.0 mph 31.1 mph N/A   Clear
2:55 PM 68.0 °F 6.8 °F 9% 30.10 in 10.0 mi NNW 24.2 mph 28.8 mph N/A   Clear
3:15 PM 66.2 °F 6.8 °F 10% 30.11 in 10.0 mi North 21.9 mph - N/A   Clear
3:35 PM 68.0 °F 5.0 °F 8% 30.10 in 10.0 mi North 19.6 mph 26.5 mph N/A   Clear
3:55 PM 68.0 °F 6.8 °F 9% 30.09 in 10.0 mi North 18.4 mph 26.5 mph N/A   Clear
4:15 PM 68.0 °F 5.0 °F 8% 30.08 in 10.0 mi North 17.3 mph - N/A   Clear
4:35 PM 68.0 °F 5.0 °F 8% 30.07 in 10.0 mi North 24.2 mph 27.6 mph N/A   Clear
4:55 PM 66.2 °F 5.0 °F 9% 30.06 in 10.0 mi NNW 19.6 mph - N/A   Clear
5:15 PM 66.2 °F 5.0 °F 9% 30.07 in 10.0 mi NNW 16.1 mph 23.0 mph N/A   Clear
5:35 PM 66.2 °F 6.8 °F 10% 30.07 in 10.0 mi North 15.0 mph - N/A   Clear
5:55 PM 66.2 °F 5.0 °F 9% 30.07 in 10.0 mi North 13.8 mph 18.4 mph N/A   Clear
6:15 PM 66.2 °F 6.8 °F 10% 30.06 in 10.0 mi North 12.7 mph - N/A   Clear
6:35 PM 64.4 °F 8.6 °F 11% 30.06 in 10.0 mi North 15.0 mph - N/A   Clear
6:55 PM 64.4 °F 10.4 °F 12% 30.07 in 10.0 mi North 13.8 mph - N/A   Clear
7:15 PM 64.4 °F 8.6 °F 11% 30.07 in 10.0 mi North 9.2 mph - N/A   Clear
7:35 PM 64.4 °F 8.6 °F 11% 30.07 in 10.0 mi North 8.1 mph - N/A   Clear
7:55 PM 62.6 °F 10.4 °F 13% 30.08 in 10.0 mi North 6.9 mph - N/A   Clear
8:15 PM 62.6 °F 6.8 °F 11% 30.08 in 10.0 mi North 10.4 mph - N/A   Clear
8:35 PM 62.6 °F 6.8 °F 11% 30.09 in 10.0 mi North 11.5 mph - N/A   Clear
8:55 PM 62.6 °F 6.8 °F 11% 30.09 in 10.0 mi NNE 10.4 mph - N/A   Clear
9:15 PM 62.6 °F 6.8 °F 11% 30.08 in 10.0 mi NNE 11.5 mph - N/A   Clear
9:35 PM 62.6 °F 6.8 °F 11% 30.08 in 10.0 mi NNE 15.0 mph - N/A   Clear
9:55 PM 62.6 °F 6.8 °F 11% 30.07 in 10.0 mi NNE 15.0 mph - N/A   Clear
10:15 PM 62.6 °F 6.8 °F 11% 30.08 in 10.0 mi NNE 11.5 mph - N/A   Clear
10:35 PM 62.6 °F 6.8 °F 11% 30.08 in 10.0 mi NE 9.2 mph - N/A   Clear
10:55 PM 60.8 °F 5.0 °F 11% 30.08 in 10.0 mi NNE 12.7 mph - N/A   Clear
11:15 PM 62.6 °F 5.0 °F 10% 30.08 in 10.0 mi North 13.8 mph - N/A   Clear
11:35 PM 60.8 °F 5.0 °F 11% 30.08 in 10.0 mi North 9.2 mph - N/A   Clear
11:55 PM 60.8 °F 5.0 °F 11% 30.07 in 10.0 mi NNW 6.9 mph - N/A   Clear